Regional Weather Roundup
Issued by NWS

Home | Current Version | Previous Version | Text Only | Print | Product List | Glossary Off
Versions: 1 2 3 4 5 6 7 8 9 10 11 12 13 14 15 16 17 18 19 20 21 22 23 24 25 26 27 28 29 30 31 32 33 34 35 36 37 38 39 40 41 42 43 44 45 46 47 48 49 50

181
ASUS43 KOAX 221010
RWRNE

WEATHER ROUNDUP FOR NEBRASKA
NATIONAL WEATHER SERVICE OMAHA NE
500 AM CDT TUE AUG 22 2017

NOTES: SATELLITE DATA IS BEING USED TO AUGMENT CLOUD COVER ABOVE
       12000 FEET.
       "FAIR" INDICATES FEW OR NO CLOUDS BELOW 12,000 FEET WITH NO
       SIGNIFICANT WEATHER AND/OR OBSTRUCTIONS TO VISIBILITY.


NEZ001>004-019>022-054>056-221100-
NEBRASKA PANHANDLE

CITY           SKY/WX    TMP DP  RH WIND       PRES   REMARKS
SCOTTSBLUFF    CLEAR     54  46  74 SE5       30.27R
ALLIANCE       CLEAR     43  41  93 NW3       30.25S
CHADRON        CLEAR     47  43  86 CALM      30.23F
GORDON         FAIR      46  42  88 CALM      30.24R
KIMBALL        MOCLDY    53  49  85 E6        30.30F
SIDNEY         CLEAR     49  46  90 CALM      30.29R
$$

NEZ057>060-069>072-079>082-221100-
SOUTHWEST NEBRASKA

CITY           SKY/WX    TMP DP  RH WIND       PRES   REMARKS
NORTH PLATTE   CLEAR     56  55  97 CALM      30.21R
IMPERIAL       CLEAR     58  56  93 N8        30.22S
LEXINGTON      CLEAR     64  60  89 N10       30.16R
MCCOOK         CLEAR     62  62 100 NW8       30.17R
OGALLALA       CLEAR     59  54  82 NE3       30.23S
$$

NEZ005>010-023>029-035>040-094-221100-
NORTH CENTRAL NEBRASKA

CITY           SKY/WX    TMP DP  RH WIND       PRES   REMARKS
VALENTINE      CLEAR     52  46  80 W8        30.20R
AINSWORTH      CLEAR     53  50  90 W5        30.19S
BROKEN BOW     CLEAR     57  54  89 N6        30.18R
O`NEILL        CLEAR     55  53  95 NW3       30.16R
ORD            CLEAR     57  53  86 NW6       30.15R
THEDFORD       CLEAR     55  49  79 CALM      30.22S
$$

NEZ041-046>049-061>064-073>077-083>087-221100-
SOUTH CENTRAL NEBRASKA

CITY           SKY/WX    TMP DP  RH WIND       PRES   REMARKS
GRAND ISLAND   CLEAR     63  63 100 N9        30.11R
AURORA         CLEAR     62  62  99 N6        30.10R
HASTINGS       CLEAR     64  61  90 N9        30.11R
HEBRON         PTCLDY    65  64  94 NE5       30.08R
HOLDREGE       CLEAR     63  61  94 N10       30.12S
KEARNEY        CLEAR     64  62  93 N13       30.13R
YORK           CLEAR     63  63 100 CALM      30.09R
$$

NEZ011>018-030>034-042>045-221100-
NORTHEAST NEBRASKA

CITY           SKY/WX    TMP DP  RH WIND       PRES   REMARKS
NORFOLK        CLEAR     60  57  89 N10       30.10R
ALBION         CLEAR     62  57  84 N10       30.12R
BLAIR          RAIN      64  63  97 CALM      30.06R VSB 1/2
COLUMBUS       CLEAR     63  60  90 N9        30.09R
FREMONT        MOCLDY    61  61  99 CALM      30.07R
TEKAMAH        CLEAR     60  59  96 NW7       30.05R
WAYNE          CLEAR     60  58  91 N7        30.09R
$$

NEZ050>053-065>068-078-088>093-221100-
SOUTHEAST NEBRASKA

CITY           SKY/WX    TMP DP  RH WIND       PRES   REMARKS
LINCOLN        CLEAR     64  62  93 CALM      30.08R
OMAHA EPPLEY   CLOUDY    65  62  90 NW3       30.05R
BEATRICE       CLOUDY    65  65  98 CALM      30.08R
FALLS CITY     CLOUDY    66  65  96 NW6       30.04R
NEBRASKA CITY  CLOUDY    65  65 100 CALM      30.07R FOG
PLATTSMOUTH    MOCLDY    64  64  98 W3        30.06R FOG
$$

NEZ044-045-051>053-067-221100-
OMAHA AREA

CITY           SKY/WX    TMP DP  RH WIND       PRES   REMARKS
OMAHA EPPLEY   CLOUDY    65  62  90 NW3       30.05R
BLAIR          RAIN      64  63  97 CALM      30.06R VSB 1/2
FREMONT        MOCLDY    61  61  99 CALM      30.07R
MILLARD        FOG       65  64  97 CALM      30.06R VSB 1/2
OFFUTT AFB     PTCLDY    64  63  94 CALM      30.05R
PLATTSMOUTH    MOCLDY    64  64  98 W3        30.06R FOG
WAHOO          FAIR      62  61  97 NW3       30.06R
$$




USA.gov is the U.S. government's official web portal to all federal, state and local government web resources and services.